This demonstration page uses our WeatherBlox Daily Observations layout. Learn more.

Left ArrowRight Arrow

Hourly Observations for November 5, 2016

Temp ( °F °C ) Dew Point ( °F °C ) Humidity (%) Winds ( mph kmh ) Pressure ( in mb ) Visibility ( mi km ) Precip ( " mm )
12:59 am 00:59 Clear 56 13.3 43 6.1 62 62 NE 14 22 30.27 1025 10 16 0.00 0.00
1:59 am 01:59 Clear 55 12.8 39 3.9 55 55 NE 12 19 30.26 1025 10 16 0.00 0.00
2:59 am 02:59 Clear 55 12.8 39 3.9 55 55 NE 9 15 30.27 1025 10 16 0.00 0.00
3:59 am 03:59 Clear 55 12.8 37 2.8 51 51 NNE 10 17 30.27 1025 10 16 0.00 0.00
4:59 am 04:59 Clear 55 12.8 35 1.7 47 47 NE 13 20 30.28 1025 10 16 0.00 0.00
5:59 am 05:59 Clear 52 11.1 44 6.7 75 75 N 8 13 30.30 1026 10 16 0.00 0.00
6:59 am 06:59 Mostly Clear 52 11.1 45 7.2 77 77 NNW 8 13 30.31 1026 10 16 0.00 0.00
7:59 am 07:59 Mostly Sunny 52 11.1 45 7.2 77 77 NNW 9 15 30.32 1027 10 16 0.00 0.00
8:59 am 08:59 Mostly Sunny 55 12.8 47 8.3 74 74 NNW 10 17 30.34 1027 10 16 0.00 0.00
9:59 am 09:59 Sunny 60 15.6 45 7.2 58 58 N 13 20 30.35 1028 10 16 0.00 0.00
10:59 am 10:59 Mostly Sunny 60 15.6 44 6.7 56 56 N 13 20 30.36 1028 10 16 0.00 0.00
11:59 am 11:59 Partly Cloudy 61 16.1 43 6.1 52 52 NNE 12 19 30.35 1028 10 16 0.00 0.00
12:59 pm 12:59 Mostly Sunny 62 16.7 44 6.7 52 52 NNE 8 13 30.33 1027 10 16 0.00 0.00
1:59 pm 13:59 Sunny 64 17.8 45 7.2 50 50 N 9 15 30.30 1026 10 16 0.00 0.00
2:59 pm 14:59 Sunny 63 17.2 43 6.1 48 48 NNE 8 13 30.30 1026 10 16 0.00 0.00
3:59 pm 15:59 Sunny 61 16.1 42 5.6 50 50 Calm 30.29 1026 10 16 0.00 0.00
4:59 pm 16:59 Sunny 60 15.6 40 4.4 47 47 SW 5 7 30.29 1026 10 16 0.00 0.00
5:59 pm 17:59 Sunny 58 14.4 39 3.9 50 50 W 6 9 30.28 1026 10 16 0.00 0.00
6:59 pm 18:59 Clear 51 10.6 42 5.6 71 71 Calm 30.29 1026 10 16 0.00 0.00
7:59 pm 19:59 Clear 49 9.4 42 5.6 77 77 Calm 30.29 1026 10 16 0.00 0.00
8:59 pm 20:59 Clear 49 9.4 43 6.1 80 80 SW 5 7 30.29 1026 10 16 0.00 0.00
9:59 pm 21:59 Clear 48 8.9 43 6.1 83 83 SW 3 6 30.30 1026 10 16 0.00 0.00
10:59 pm 22:59 Clear 47 8.3 42 5.6 83 83 Calm 30.29 1026 10 16 0.00 0.00
11:59 pm 23:59 Clear 48 8.9 43 6.1 83 83 WSW 6 9 30.28 1026 10 16 0.00 0.00

Powered by AerisWeather